Wind_Speed
1 2 3 3 4 4 4 3 2 2 2 2 2 2 2 2 3 3 3 3 3 4 4 5 5 5 5 5 5 6 6 7 7 7 7 7 8 8 8 9 9 9 9
1 1 2 2 3 3 3 2 1 1 1 1 1 1 1 1 2 2 2 2 2 3 3 3 4 4 4 4 4 5 5 5 6 6 6 6 7 7 7 8 8 8 8
2 2 2 2 2 3 3 2 1 1 1 1 1 1 1 1 1 1 2 2 2 2 2 2 3 3 3 4 4 4 4 4 4 5 5 5 6 6 6 7 8 8 8
3 3 3 3 3 3 3 3 2 2 2 2 2 2 2 1 1 1 1 1 2 2 1 1 2 2 3 3 3 3 3 3 3 3 4 5 5 5 5 6 6 7 7
3 4 4 4 4 4 4 4 3 3 2 2 2 3 2 2 1 2 1 2 2 2 2 1 1 2 2 2 2 2 2 3 2 3 3 4 4 4 4 5 5 5 6
2 4 5 5 5 5 5 5 5 4 3 3 4 3 3 3 2 2 2 3 3 3 3 2 2 2 2 2 1 1 1 1 2 2 2 3 3 3 3 3 4 4 5
2 4 6 7 7 7 7 7 6 6 5 5 5 4 4 4 4 3 4 4 3 3 3 3 2 2 2 2 1 1 0 1 1 1 1 2 2 2 2 2 3 3 4
3 4 5 7 8 9 8 8 7 7 6 6 5 5 5 5 5 4 5 4 4 4 4 4 3 3 2 2 2 1 1 0 1 1 1 1 1 1 1 2 2 2 3
3 4 6 7 8 9 10 9 9 8 8 7 6 6 6 5 5 5 6 5 5 5 4 4 3 3 3 2 2 2 1 1 1 1 1 0 1 1 1 1 1 2 2
4 4 5 7 8 9 10 10 10 10 9 8 7 7 7 6 6 6 6 6 5 5 5 4 4 3 3 2 2 2 1 2 1 2 1 1 1 1 1 1 1 1 1
4 5 6 7 9 10 11 11 12 11 11 10 9 8 8 7 7 6 6 5 5 5 5 4 4 3 2 2 2 2 2 1 1 1 1 1 1 1 1 1 1 1 2
5 6 7 8 10 11 11 12 13 13 12 12 11 10 9 8 8 7 6 6 5 5 5 5 4 3 2 1 1 2 1 2 2 1 1 1 1 1 1 1 1 2 2
5 6 7 8 9 10 12 13 14 14 13 13 12 11 10 9 8 7 7 6 6 6 5 4 3 3 1 1 1 1 1 1 1 1 0 1 1 1 1 1 1 2 2
6 7 8 8 8 10 11 12 14 15 15 15 14 13 12 11 10 8 7 7 6 6 5 5 4 3 1 1 1 1 1 1 1 1 1 0 0 1 1 1 1 1 2
7 8 8 7 8 9 11 12 13 14 15 15 15 14 13 12 11 10 9 8 7 6 6 5 4 3 2 1 1 1 1 1 1 1 1 1 1 1 1 1 1 1 1
8 8 9 9 9 10 11 12 13 14 15 16 16 16 15 14 13 12 11 9 8 7 6 5 4 3 3 2 2 1 2 1 0 0 1 1 1 1 1 1 1 1 1
10 10 9 9 10 10 12 13 14 15 15 16 16 17 15 15 14 13 11 10 9 7 6 5 4 4 4 3 2 2 2 1 1 0 1 1 1 1 1 0 0 0 0
12 11 10 9 9 10 12 13 15 16 16 16 16 16 16 16 15 14 13 11 10 9 8 6 5 4 4 3 3 2 2 2 2 1 1 2 1 1 1 1 1 1 1
12 11 11 11 11 11 11 12 13 14 15 16 16 15 16 16 16 15 13 11 10 10 9 7 6 5 4 4 3 2 2 2 2 1 1 2 2 1 1 1 1 0 1
12 11 11 12 12 12 12 13 13 14 15 16 16 14 15 15 16 15 13 12 11 11 9 8 7 6 5 4 3 3 3 3 3 2 2 1 2 1 1 1 1 1 0
12 11 12 12 12 12 11 12 14 14 15 16 16 15 14 15 16 15 15 13 13 12 10 9 8 7 6 5 4 4 4 4 3 3 2 1 2 2 1 1 1 1 1
12 12 11 11 12 12 12 13 13 14 14 15 16 16 16 16 16 16 16 15 13 12 11 10 10 9 7 6 5 4 4 4 3 3 2 2 2 2 1 1 1 1 1
12 11 10 10 10 11 12 14 14 14 14 15 16 17 17 17 17 16 16 15 14 14 13 12 11 10 9 7 6 5 5 4 4 3 2 2 2 1 1 1 1 1 2
11 10 10 10 9 10 11 13 15 15 15 16 18 19 18 18 18 16 16 16 16 15 14 13 13 12 10 9 7 6 5 4 4 3 3 2 2 2 1 1 1 2 3
10 9 9 10 10 10 11 12 14 14 15 17 19 19 19 19 18 17 17 17 17 17 16 15 14 13 11 10 8 7 6 6 5 5 4 3 3 3 2 3 4 4 4
8 8 8 9 10 10 10 11 13 14 15 17 19 20 19 19 19 18 18 18 19 18 17 16 15 14 12 11 10 9 8 7 7 6 6 5 5 4 4 5 6 6 7
Wind_Direction
106 108 120 126 130 125 116 104 82 57 44 36 42 50 71 88 91 88 85 85 84 83 81 79 78 76 76 79 83 83 83 85 84 86 86 86 85 83 81 80 83 87 87
205 151 142 149 155 148 142 134 117 52 17 358 3 12 38 72 81 79 78 78 77 76 76 76 75 73 74 78 82 84 85 87 86 86 88 89 87 83 81 82 82 86 84
234 207 185 182 185 179 169 172 192 234 287 296 300 324 338 17 46 51 54 51 52 58 67 68 62 60 65 71 78 85 89 89 90 88 87 87 86 85 83 84 83 85 85
228 222 213 209 208 198 191 196 210 232 256 271 278 296 302 313 347 11 14 6 1 2 16 38 40 45 50 57 70 78 83 87 91 88 87 88 85 86 86 86 85 85 86
220 222 221 219 217 208 205 208 218 232 248 257 268 279 284 289 312 328 328 326 325 324 332 352 6 9 22 38 53 61 71 86 94 93 90 92 88 88 90 91 89 87 89
230 223 225 225 222 217 217 219 221 229 241 249 256 261 270 278 289 298 300 303 307 312 317 323 338 343 357 14 24 39 69 89 100 95 98 94 95 98 96 94 94 92 92
257 234 227 227 227 224 226 226 226 230 238 246 251 258 267 276 283 288 290 298 306 312 312 311 320 325 336 343 347 339 26 99 112 122 120 116 110 108 101 99 100 101 99
287 249 233 231 231 228 227 228 229 230 237 244 249 259 270 277 279 282 286 296 306 310 311 306 306 309 314 314 314 302 276 231 168 205 166 145 136 139 125 116 111 110 113
313 273 247 237 234 230 228 229 229 231 236 239 246 258 267 271 275 278 283 292 299 303 304 302 302 305 308 304 303 300 284 272 228 229 222 228 207 187 172 157 139 133 128
313 289 260 246 241 234 230 229 230 231 233 237 245 255 262 266 271 276 281 290 297 299 297 299 302 305 300 290 290 296 294 264 241 249 235 232 214 207 205 197 186 188 181
310 290 272 257 245 238 236 233 232 233 235 236 242 249 257 265 270 273 280 287 292 296 294 295 303 308 298 268 261 269 285 271 257 227 221 234 227 221 217 216 223 224 224
309 294 282 267 249 242 239 235 232 235 237 237 240 245 253 262 266 269 270 278 286 292 293 291 295 301 292 251 247 246 244 256 245 228 241 256 253 246 236 232 234 233 231
306 295 290 273 254 245 241 236 233 234 236 235 240 243 248 254 259 261 265 271 280 289 289 289 285 284 267 221 220 228 207 237 232 244 231 244 249 254 247 252 247 239 231
303 291 292 280 259 247 244 240 236 234 232 234 237 241 245 250 250 254 256 263 275 283 284 284 284 273 252 227 208 226 226 226 279 235 176 148 190 238 247 265 276 255 233
302 291 297 287 264 252 250 245 241 239 236 234 236 241 247 248 244 245 249 256 265 272 273 273 267 255 252 229 178 172 242 245 297 277 194 171 198 231 251 273 300 303 257
302 294 288 283 266 257 251 245 238 238 237 235 236 239 239 240 240 242 245 248 254 260 254 253 246 243 248 241 214 205 219 236 300 276 233 222 215 218 247 256 277 302 273
310 298 289 281 268 257 250 247 241 238 237 236 236 235 236 236 237 239 241 242 243 238 235 239 239 235 234 228 218 215 219 221 217 248 192 182 169 189 214 214 252 271 268
307 300 292 285 275 262 253 246 243 239 233 232 234 235 235 232 233 233 234 235 232 227 225 227 228 228 221 215 212 207 205 193 181 163 163 169 163 168 209 205 211 203 241
304 300 291 286 280 266 254 246 244 234 229 229 233 238 234 230 228 226 223 224 223 220 219 221 219 218 213 208 200 202 196 189 190 185 182 171 174 191 187 195 189 178 196
305 297 290 286 278 268 258 249 242 235 229 229 233 236 232 226 221 217 214 218 217 216 216 216 214 214 207 204 201 202 197 190 189 204 213 197 194 181 163 183 206 197 177
305 297 293 284 273 262 253 248 243 237 231 230 228 229 225 218 214 212 211 215 216 214 213 210 209 207 204 201 201 200 195 191 196 208 222 225 200 188 195 210 213 222 221
305 295 290 278 270 256 248 244 240 233 231 231 224 221 216 212 211 209 209 213 215 214 211 208 207 204 201 201 201 196 191 191 199 203 207 205 196 190 210 228 216 208 200
307 295 285 278 272 255 245 241 236 231 231 228 222 216 213 213 210 211 211 211 212 211 209 207 206 202 201 206 208 203 195 191 185 180 185 197 185 181 219 221 205 213 216
309 295 284 271 265 259 254 240 232 228 228 224 218 213 213 210 209 212 211 210 210 209 209 208 209 208 209 211 211 211 208 201 199 196 198 190 184 196 217 234 249 256 259
315 303 287 277 272 266 254 239 228 226 226 222 215 213 211 209 211 215 214 213 212 211 211 211 211 211 213 214 215 217 214 212 214 217 214 207 215 227 246 266 275 275 277
320 314 296 281 273 269 257 240 229 226 225 220 215 215 214 211 212 218 215 216 214 212 215 215 215 216 217 218 219 219 220 221 224 226 228 230 239 250 261 269 275 279 281
Height
5891 5890 5891 5891 5892 5892 5893 5893 5894 5895 5895 5895 5895 5895 5895 5895 5895 5894 5894 5893 5893 5892 5892 5892 5891 5891 5891 5891 5891 5890 5890 5890 5890 5889 5889 5889 5889 5888 5888 5888 5887 5887 5887
5891 5891 5891 5892 5892 5893 5893 5894 5895 5895 5896 5896 5896 5896 5896 5896 5895 5895 5895 5894 5894 5893 5893 5893 5892 5892 5892 5892 5892 5891 5891 5891 5891 5891 5891 5890 5890 5889 5889 5889 5889 5889 5889
5891 5891 5892 5892 5893 5893 5894 5895 5895 5896 5896 5897 5897 5897 5897 5897 5896 5896 5895 5895 5895 5894 5894 5893 5893 5893 5893 5893 5892 5892 5892 5892 5892 5892 5892 5891 5891 5891 5891 5890 5890 5890 5890
5890 5891 5891 5892 5893 5893 5894 5895 5896 5896 5897 5897 5898 5898 5898 5898 5897 5897 5896 5896 5895 5895 5894 5894 5894 5894 5893 5893 5893 5893 5893 5892 5892 5892 5892 5892 5892 5892 5892 5892 5892 5892 5891
5890 5890 5891 5892 5893 5893 5894 5895 5896 5896 5897 5898 5898 5898 5898 5898 5898 5897 5897 5896 5896 5896 5895 5895 5894 5894 5894 5894 5893 5893 5893 5893 5893 5893 5893 5893 5893 5893 5893 5893 5893 5893 5893
5889 5889 5890 5891 5892 5893 5894 5895 5895 5896 5897 5898 5898 5899 5899 5899 5898 5898 5897 5897 5896 5896 5896 5895 5895 5895 5894 5894 5894 5893 5893 5893 5893 5893 5894 5894 5894 5894 5894 5894 5894 5894 5894
5888 5888 5889 5890 5891 5892 5893 5894 5895 5896 5897 5897 5898 5899 5899 5899 5899 5898 5898 5897 5897 5896 5896 5896 5895 5895 5895 5894 5894 5894 5893 5893 5894 5894 5894 5894 5894 5894 5894 5894 5894 5894 5894
5887 5888 5888 5889 5890 5891 5892 5893 5894 5895 5896 5897 5898 5899 5899 5899 5899 5898 5898 5897 5897 5897 5896 5896 5895 5895 5895 5894 5894 5894 5894 5894 5894 5894 5894 5894 5894 5895 5895 5895 5895 5895 5895
5886 5886 5887 5888 5889 5890 5891 5892 5893 5894 5895 5896 5897 5898 5898 5899 5899 5898 5898 5898 5897 5897 5896 5896 5895 5895 5895 5894 5894 5894 5894 5894 5894 5894 5894 5894 5894 5895 5895 5895 5895 5895 5895
5884 5885 5886 5886 5887 5888 5889 5891 5892 5893 5894 5895 5896 5897 5898 5898 5898 5898 5898 5897 5897 5896 5896 5896 5895 5895 5895 5894 5894 5894 5894 5894 5894 5894 5894 5894 5894 5894 5894 5894 5895 5895 5895
5883 5883 5884 5884 5885 5886 5887 5889 5890 5891 5892 5894 5895 5896 5897 5897 5897 5897 5897 5897 5897 5896 5896 5896 5895 5895 5895 5894 5894 5894 5894 5894 5894 5894 5894 5894 5894 5894 5894 5894 5894 5894 5895
5882 5881 5882 5882 5882 5884 5885 5886 5888 5889 5890 5892 5893 5894 5895 5896 5896 5897 5897 5897 5896 5896 5895 5895 5895 5895 5894 5894 5894 5894 5894 5893 5894 5893 5893 5894 5894 5894 5894 5894 5894 5894 5894
5880 5880 5880 5879 5880 5881 5882 5883 5885 5887 5888 5890 5891 5893 5893 5894 5895 5895 5896 5896 5896 5895 5895 5895 5895 5894 5894 5894 5894 5893 5893 5893 5893 5893 5893 5893 5893 5893 5893 5893 5893 5893 5893
5878 5878 5877 5877 5878 5878 5879 5880 5882 5884 5885 5887 5889 5891 5892 5892 5893 5894 5895 5895 5895 5895 5895 5894 5894 5894 5894 5894 5894 5893 5893 5893 5893 5893 5893 5893 5893 5893 5893 5893 5893 5893 5893
5876 5875 5875 5875 5875 5876 5876 5877 5879 5881 5883 5884 5886 5888 5890 5891 5892 5893 5893 5894 5894 5894 5894 5894 5894 5894 5894 5894 5894 5894 5893 5893 5893 5893 5893 5893 5893 5892 5893 5892 5892 5892 5892
5873 5873 5872 5872 5873 5873 5873 5874 5876 5878 5880 5881 5883 5885 5887 5888 5890 5891 5892 5892 5893 5893 5893 5893 5893 5893 5894 5894 5894 5894 5893 5893 5893 5893 5892 5892 5892 5892 5892 5892 5892 5892 5891
5870 5870 5869 5869 5869 5870 5871 5871 5873 5875 5876 5878 5880 5882 5884 5886 5887 5888 5889 5890 5891 5892 5892 5893 5893 5893 5894 5894 5894 5894 5893 5893 5893 5892 5892 5892 5892 5892 5892 5892 5891 5891 5891
5867 5866 5866 5866 5865 5866 5867 5868 5869 5871 5872 5874 5876 5878 5880 5883 5884 5886 5887 5889 5890 5891 5891 5892 5893 5893 5893 5893 5893 5893 5893 5893 5892 5892 5892 5892 5892 5891 5891 5891 5891 5890 5890
5863 5861 5861 5861 5861 5861 5863 5864 5865 5867 5869 5871 5873 5875 5877 5879 5882 5883 5885 5887 5888 5889 5890 5891 5892 5892 5892 5893 5893 5893 5893 5893 5892 5892 5892 5891 5891 5891 5891 5890 5890 5890 5889
5859 5858 5857 5857 5856 5857 5858 5860 5861 5863 5865 5867 5870 5872 5873 5876 5879 5881 5883 5885 5886 5888 5889 5890 5891 5891 5892 5892 5892 5892 5892 5892 5892 5892 5891 5891 5891 5891 5890 5890 5890 5889 5889
5856 5855 5854 5853 5853 5853 5854 5856 5857 5859 5861 5864 5866 5868 5870 5873 5876 5878 5880 5882 5884 5886 5887 5888 5890 5890 5891 5891 5892 5892 5892 5892 5892 5891 5891 5891 5890 5890 5890 5889 5889 5889 5889
5852 5851 5850 5850 5849 5850 5850 5852 5853 5855 5857 5860 5862 5865 5867 5870 5873 5875 5878 5880 5882 5884 5885 5887 5888 5889 5890 5890 5891 5891 5891 5892 5891 5891 5891 5891 5890 5890 5890 5889 5889 5889 5888
5849 5847 5846 5846 5845 5845 5847 5849 5850 5852 5854 5857 5859 5862 5864 5867 5870 5873 5875 5877 5880 5882 5883 5885 5887 5888 5888 5889 5890 5890 5890 5891 5891 5891 5890 5890 5890 5890 5889 5889 5889 5888 5888
5845 5844 5843 5842 5843 5843 5844 5846 5847 5849 5852 5853 5855 5858 5861 5864 5867 5870 5872 5875 5877 5879 5881 5883 5885 5886 5887 5888 5888 5889 5890 5890 5890 5890 5890 5890 5890 5890 5889 5889 5888 5888 5888
5843 5842 5841 5840 5840 5841 5842 5843 5844 5846 5848 5850 5852 5855 5858 5861 5864 5867 5869 5872 5874 5877 5879 5881 5882 5884 5885 5886 5887 5887 5888 5888 5889 5889 5889 5889 5889 5889 5889 5888 5887 5887 5886
5841 5840 5839 5839 5838 5838 5839 5840 5841 5843 5844 5847 5849 5852 5855 5858 5861 5864 5866 5869 5871 5874 5876 5878 5880 5881 5882 5884 5885 5885 5886 5886 5887 5887 5887 5887 5887 5888 5887 5887 5886 5885 5884